SIRIUS FM-5

Last updated on Dec. 11, 2019, 4:28 a.m. UTC

1 35493U 09034A   19344.59655216 -.00000180  00000-0  00000+0 0  9999
2 35493   0.0173 311.8543 0000123 107.1533 148.6651  1.00272090 38102
UTC
Height (km)
Latitude
Longitude
Inclination
Orbital Period
UTC large
Height (km)
Speed (km/s)
/
Latitude / Longitude
Inclination (degrees)
Orbital Period (minutes)
Azimuth
Elevation
Range (km)
Doppler Factor
iOS Compass Heading
iOS Angle

Next 30 passes for location: Hong Kong

Rise time Rise Azimuth (degrees) Set time Set Azimuth (degrees) Duration Max altitude (degrees)

No matching passes for this satellites